[[[{"header":{"parameterUnit":"kt","parameterCategory":2,"dx":1,"dy":1,"la1":30.253999710083008,"la2":30.299108505249023,"lo1":-89.0895004272461,"lo2":-89.04439544677734,"nx":28,"ny":28,"refTime":"2022-10-27T21:00:00:Z","depth":0,"parameterNumber":1,"parameterNumberName":"U-component_of_WINDS"},"data":[-12.4384,-12.4526,-12.4561,-12.474,-12.4802,-12.4929,-12.4986,-12.5064,-12.5135,-12.5293,-12.539,-12.5441,-12.5526,-12.5651,-12.5758,-12.5779,-12.5819,-12.5845,-12.5863,-12.5719,-12.5702,-12.5684,-12.5649,-12.5855,-12.5855,-12.6003,-12.6004,-12.6005,-12.4276,-12.4338,-12.4443,-12.4568,-12.4659,-12.4656,-12.4756,-12.4831,-12.4946,-12.5036,-12.5133,-12.5276,-12.5393,-12.5471,-12.559,-12.5658,-12.5661,-12.5687,-12.5678,-12.5691,-12.5541,-12.5504,-12.5682,-12.5682,-12.5682,-12.5682,-12.5681,-12.5681,-12.4086,-12.4171,-12.4266,-12.4381,-12.4454,-12.4538,-12.4625,-12.4684,-12.4788,-12.4915,-12.4938,-12.5069,-12.5165,-12.5326,-12.5389,-12.5493,-12.547,-12.5508,-12.5516,-12.5523,-12.5524,-12.5297,-12.5516,-12.5515,-12.5515,-12.5515,-12.5515,0,-12.3956,-12.3979,-12.4082,-12.4196,-12.4282,-12.4374,-12.4464,-12.452,-12.458,-12.4664,-12.4787,-12.4865,-12.5019,-12.5138,-12.5258,-12.5316,-12.5317,-12.5324,-12.5349,-12.5334,-12.5306,-12.5316,-12.5063,-12.5315,-12.5314,-12.5312,-12.5312,-12.5311,-12.3761,-12.3858,-12.3975,-12.4043,-12.41,-12.421,-12.4282,-12.4329,-12.4403,-12.4522,-12.4595,-12.4717,-12.4816,-12.5011,-12.5078,-12.5193,-12.5193,-12.5284,-12.521,-12.5194,-12.5186,-12.5177,-12.5185,-12.5295,-12.5297,-12.5298,-12.53,0,-12.3647,-12.3703,-12.3863,-12.3969,-12.3999,-12.4098,-12.4188,-12.4276,-12.4324,-12.4451,-12.4484,-12.4558,-12.4679,-12.4732,-12.4883,-12.4907,-12.5069,-12.5071,-12.5035,-12.5035,-12.5117,-12.5106,-12.5388,-12.5425,-12.522,-12.5222,-12.5224,0,-12.3499,-12.3625,-12.3698,-12.3789,-12.393,-12.3971,-12.411,-12.4164,-12.4246,-12.4347,-12.4359,-12.4453,-12.4506,-12.4609,-12.4644,-12.4787,-12.4818,-12.4841,-12.4847,-12.4836,-12.4832,-12.4869,-12.4856,-12.4867,-12.4866,-12.4864,-12.4863,0,-12.3308,-12.3497,-12.3645,-12.3697,-12.3821,-12.389,-12.3946,-12.4037,-12.4108,-12.4209,-12.4255,-12.4371,-12.4433,-12.4523,-12.4565,-12.4512,-12.4744,-12.4679,-12.4767,-12.4766,-12.4808,-12.4803,-12.5047,-12.4861,-12.4861,-12.486,-12.486,0,-12.3193,-12.3294,-12.3502,-12.3604,-12.3652,-12.3751,-12.3865,-12.3962,-12.4058,-12.4086,-12.4166,-12.4177,-12.431,-12.4241,-12.4424,-12.4342,-12.4403,-12.4439,-12.4447,-12.4453,-12.4372,-12.4493,-12.4727,-12.4749,-12.4471,-12.4468,-12.4465,0,-12.2957,-12.3182,-12.3216,-12.3415,-12.3524,-12.3525,-12.3637,-12.3721,-12.3767,-12.3867,-12.3918,-12.4033,-12.3993,-12.4035,-12.4121,-12.4176,-12.4284,-12.4164,-12.4303,-12.4308,-12.4269,-12.4487,-12.4503,-12.4672,-12.4425,-12.4429,-12.4432,0,-12.2778,-12.2927,-12.296,-12.3018,-12.3135,-12.3228,-12.3358,-12.3479,-12.3542,-12.3639,-12.3745,-12.3911,-12.3885,-12.3956,-12.3976,-12.4062,-12.4212,-12.4022,-12.4025,-12.4049,-12.4411,-12.4426,-12.4454,-12.4208,-12.4213,-12.4217,-12.44,0,-12.2581,-12.2701,-12.2794,-12.2923,-12.3004,-12.3132,-12.3183,-12.3261,-12.3271,-12.3314,-12.3475,-12.3559,-12.3682,-12.373,-12.3742,-12.3922,-12.3898,-12.387,-12.3799,-12.3945,-12.4006,-12.4031,-12.3704,-12.3702,-12.3701,-12.37,0,0,-12.2336,-12.2508,-12.2541,-12.2665,-12.2734,-12.273,-12.2861,-12.2929,-12.3064,-12.3111,-12.3074,-12.3317,-12.3386,-12.3574,-12.3624,-12.3677,-12.3712,-12.3658,-12.3877,-12.3896,-12.3915,-12.3979,-12.4005,-12.3697,-12.3697,-12.3696,-12.3696,0,-12.2272,-12.2343,-12.2472,-12.2543,-12.2648,-12.2687,-12.2719,-12.2821,-12.2854,-12.3013,-12.3005,-12.3109,-12.3303,-12.3374,-12.3436,-12.364,-12.3625,-12.3676,-12.3765,-12.3861,-12.3882,-12.3901,-12.3969,-12.3993,-12.3692,-12.3692,-12.3693,0,-12.2099,-12.2175,-12.2243,-12.2401,-12.2469,-12.2583,-12.2523,-12.2647,-12.2732,-12.2719,-12.2875,-12.2928,-12.3029,-12.3204,-12.3284,-12.3251,-12.3543,-12.3462,-12.3473,-12.348,-12.3575,-12.3601,-12.3624,-12.332,-12.3318,-12.3317,0,0,-12.2036,-12.2148,-12.2241,-12.239,-12.2434,-12.2493,-12.2559,-12.2574,-12.2664,-12.27,-12.2766,-12.2854,-12.2967,-12.304,-12.3148,-12.3334,-12.3355,-12.3414,-12.3432,-12.3446,-12.3461,-12.3559,-12.3585,-12.3311,-12.3311,-12.3311,0,0,-12.2005,-12.2117,-12.211,-12.229,-12.2376,-12.2476,-12.2565,-12.2559,-12.2661,-12.2651,-12.2683,-12.2707,-12.2872,-12.2923,-12.2841,-12.3123,-12.3054,-12.3074,-12.3081,-12.3104,-12.3121,-12.3102,-12.2787,0,0,0,0,0,-12.1962,-12.2103,-12.2096,-12.2133,-12.2331,-12.2481,-12.2506,-12.2534,-12.2484,-12.2554,-12.2608,-12.2589,-12.2885,-12.2812,-12.2849,-12.2938,-12.3237,-12.325,-12.3262,-12.3315,-12.3338,-12.3358,0,0,0,0,0,0,-12.1977,-12.2023,-12.2092,-12.2197,-12.2242,-12.2476,-12.2396,-12.2407,-12.2477,-12.2471,-12.258,-12.2593,-12.262,-12.2795,-12.2828,-12.2912,-12.2776,-12.3242,-12.3253,-12.3263,-12.3323,-12.3342,-12.3358,0,0,0,0,0,-12.1989,-12.2026,-12.2335,-12.2196,-12.2235,-12.2306,-12.239,-12.24,-12.2454,-12.2536,-12.2549,-12.2469,-12.2622,-12.2651,-12.2815,-12.2897,-12.2753,-12.2766,-12.3249,-12.3258,-12.3266,-12.3332,0,0,0,0,0,0,-12.1998,-12.2035,-12.2344,-12.2356,-12.2143,-12.2294,-12.2318,-12.2393,-12.2515,-12.2529,-12.2426,-12.242,-12.2625,-12.2647,-12.267,-12.2889,-12.2735,-12.2747,-12.2755,-12.3256,-12.3263,-12.3269,0,0,0,0,0,0,-12.2016,-12.2046,-12.235,-12.2282,-12.2288,-12.2282,-12.2304,-12.2447,-12.2517,-12.2398,-12.2397,-12.2422,-12.259,-12.2645,-12.2663,-12.2886,-12.2721,-12.2733,-12.2741,-12.2746,-12.3261,-12.3267,0,0,0,0,0,0,-12.2029,-12.2055,-12.2279,-12.2283,-12.2288,-12.2435,-12.2409,-12.261,-12.2458,-12.2393,-12.2445,-12.244,-12.2589,-12.2607,-12.2658,-12.2873,-12.2883,-12.2721,-12.2729,-12.2735,-12.2739,0,0,0,0,0,0,0,-12.204,-12.1857,-12.2267,-12.2284,-12.2288,-12.2476,-12.2479,-12.2483,-12.2457,-12.2452,-12.2447,-12.2442,-12.2653,-12.2666,-12.2679,-12.2863,0,0,-12.272,-12.2726,0,0,0,0,0,0,0,0,-12.1847,-12.1855,-12.2267,-12.227,-12.2273,-12.2476,-12.2479,-12.2482,-12.2456,-12.2452,-12.2448,-12.2444,-12.2657,-12.2667,-12.2678,0,0,0,0,0,0,0,0,0,0,0,0,0,0,0,-12.2268,-12.227,0,-12.2477,-12.2479,-12.2481,-12.2456,-12.2452,-12.2449,-12.2446,-12.266,-12.2668,-12.2677,0,0,0,0,0,0,0,0,0,0,0,0,0,0,0,0,0,0,0,0,0,0,0,0,0,0,0,0,0,0,0,0,0,0,0,0,0,0,0,0,0,0,0,0,0,0,0,0,0,0,0,0,0,0,0,0,0,0,0,0,0,0,0,0,0,0,0,0,0]}],[{"header":{"parameterUnit":"kt","parameterCategory":2,"dx":1,"dy":1,"la1":30.253999710083008,"la2":30.299108505249023,"lo1":-89.0895004272461,"lo2":-89.04439544677734,"nx":28,"ny":28,"refTime":"2022-10-27T21:00:00:Z","depth":0,"parameterNumber":2,"parameterNumberName":"V-component_of_WINDS"},"data":[5.183,5.1974,5.1983,5.2154,5.2191,5.2312,5.2359,5.2421,5.2473,5.2622,5.271,5.2738,5.2799,5.291,5.301,5.3021,5.3065,5.3108,5.3115,5.2902,5.2874,5.2847,5.2812,5.3116,5.3117,5.3335,5.3337,5.3339,5.1675,5.1712,5.1803,5.19,5.198,5.1942,5.2018,5.2089,5.2199,5.2265,5.2352,5.2485,5.2593,5.264,5.2748,5.2822,5.2813,5.285,5.2848,5.2859,5.2631,5.2593,5.2856,5.2856,5.2856,5.2855,5.2855,5.2855,5.1396,5.1482,5.1544,5.1644,5.1695,5.1761,5.1846,5.1876,5.1969,5.2078,5.2073,5.22,5.2271,5.2407,5.2456,5.2559,5.2521,5.2567,5.2579,5.2592,5.2605,5.2294,5.2577,5.2577,5.2576,5.2576,5.2575,0,5.1195,5.1196,5.1284,5.1376,5.145,5.1523,5.1593,5.1646,5.1656,5.1734,5.1848,5.1916,5.2053,5.2165,5.2268,5.2311,5.2286,5.2284,5.2316,5.2322,5.2314,5.2324,5.1955,5.2276,5.2274,5.2272,5.2271,5.227,5.0918,5.1016,5.1085,5.1147,5.1186,5.1285,5.1348,5.1348,5.1415,5.1503,5.1582,5.1692,5.178,5.1966,5.2005,5.211,5.21,5.2221,5.2116,5.2116,5.2107,5.2102,5.2114,5.2243,5.2247,5.2249,5.2252,0,5.0762,5.0774,5.093,5.0989,5.1008,5.1113,5.1166,5.1254,5.1273,5.1399,5.1428,5.1462,5.1576,5.1595,5.173,5.1738,5.1921,5.1905,5.1896,5.1895,5.2009,5.2,5.2368,5.2418,5.2098,5.2101,5.2104,0,5.0533,5.0662,5.0674,5.0764,5.0909,5.0904,5.105,5.1081,5.1139,5.1237,5.1207,5.1301,5.131,5.1409,5.142,5.1572,5.1596,5.1613,5.1615,5.1617,5.1616,5.1658,5.1645,5.1611,5.1609,5.1607,5.1606,0,5.0289,5.0446,5.0591,5.063,5.0707,5.0777,5.0813,5.0878,5.094,5.1023,5.1064,5.1163,5.1219,5.1298,5.1311,5.1239,5.1496,5.14,5.1513,5.1513,5.1572,5.1569,5.1886,5.1603,5.1603,5.1602,5.1601,0,5.0107,5.0185,5.0392,5.0456,5.0498,5.0595,5.0689,5.0775,5.0846,5.0858,5.0924,5.0908,5.1038,5.0942,5.1125,5.1027,5.1085,5.1111,5.112,5.1136,5.1028,5.1209,5.1506,5.154,5.1147,5.1143,5.114,0,4.9827,5.0038,5.0034,5.0233,5.0333,5.0291,5.0399,5.0461,5.0485,5.0577,5.0604,5.071,5.0642,5.0678,5.0765,5.08,5.0927,5.0783,5.0925,5.093,5.0909,5.1182,5.1223,5.1438,5.1092,5.1097,5.11,0,4.9612,4.97,4.9735,4.9779,4.9857,4.9941,5.0064,5.0166,5.0227,5.03,5.0407,5.0555,5.051,5.057,5.0568,5.0658,5.0841,5.0599,5.0601,5.0645,5.1067,5.1106,5.1142,5.082,5.0826,5.0831,5.1062,0,4.9339,4.9445,4.954,4.9636,4.9702,4.9826,4.984,4.991,4.9898,4.992,5.0076,5.0133,5.0241,5.0285,5.0277,5.0475,5.0446,5.0397,5.0308,5.0485,5.0562,5.0593,5.0191,5.0189,5.0187,5.0185,0,0,4.907,4.9221,4.9212,4.9329,4.9385,4.9339,4.9471,4.9521,4.9624,4.9666,4.9615,4.9833,4.9883,5.0072,5.0128,5.0171,5.021,5.0147,5.0399,5.0423,5.0445,5.0527,5.0559,5.0181,5.018,5.018,5.0179,0,4.8973,4.9015,4.9142,4.9192,4.9265,4.928,4.9311,4.9377,4.9397,4.9547,4.9512,4.9608,4.9781,4.984,4.9893,5.0123,5.0094,5.0155,5.0273,5.0377,5.0403,5.0427,5.0513,5.0543,5.0174,5.0174,5.0174,0,4.8765,4.881,4.8872,4.8993,4.9041,4.9146,4.9053,4.9166,4.9245,4.9194,4.9345,4.938,4.9459,4.9633,4.9713,4.9669,4.9987,4.9889,4.9903,4.9914,5.0015,5.0047,5.0075,4.9701,4.9699,4.9698,0,0,4.868,4.8777,4.8827,4.8973,4.9006,4.9029,4.9086,4.908,4.9148,4.9176,4.9219,4.929,4.9392,4.9459,4.9555,4.9744,4.9763,4.983,4.9852,4.9871,4.9891,4.9997,5.0028,4.9691,4.9691,4.9691,0,0,4.8641,4.8702,4.8676,4.8847,4.8911,4.8972,4.9063,4.9036,4.9122,4.911,4.911,4.9128,4.9292,4.9328,4.9238,4.9524,4.9434,4.9456,4.9494,4.9523,4.9545,4.9534,4.9155,0,0,0,0,0,4.8547,4.8693,4.867,4.87,4.8854,4.8985,4.9005,4.9005,4.894,4.9013,4.9045,4.9008,4.928,4.92,4.9233,4.9334,4.9607,4.9622,4.9636,4.973,4.9759,4.9784,0,0,0,0,0,0,4.8559,4.8596,4.8666,4.8733,4.8767,4.8979,4.8871,4.8875,4.8933,4.8923,4.9003,4.9011,4.9016,4.9184,4.9213,4.9309,4.9145,4.9613,4.9625,4.9637,4.974,4.9764,4.9784,0,0,0,0,0,4.8569,4.8598,4.8845,4.8731,4.8761,4.8796,4.8865,4.8868,4.8913,4.8963,4.8969,4.8907,4.9019,4.9044,4.9201,4.9296,4.9125,4.9136,4.9621,4.9631,4.964,4.9751,0,0,0,0,0,0,4.8576,4.8604,4.8851,4.886,4.8674,4.8784,4.88,4.8862,4.895,4.8957,4.8867,4.8859,4.9022,4.9041,4.9061,4.9291,4.9108,4.9119,4.9126,4.9629,4.9636,4.9643,0,0,0,0,0,0,4.8588,4.8612,4.8856,4.8785,4.8786,4.8773,4.8788,4.8922,4.8952,4.8849,4.8844,4.8862,4.8995,4.904,4.9055,4.9265,4.9095,4.9106,4.9113,4.9118,4.9635,4.9641,0,0,0,0,0,0,4.8598,4.8619,4.8782,4.8783,4.8784,4.889,4.8892,4.9052,4.8885,4.8846,4.8871,4.8864,4.8995,4.901,4.9052,4.9255,4.9262,4.9096,4.9103,4.9108,4.9112,0,0,0,0,0,0,0,4.8606,4.8465,4.8795,4.8782,4.8782,4.8947,4.895,4.8952,4.8884,4.8878,4.8872,4.8867,4.9034,4.9046,4.9058,4.9247,0,0,4.9095,4.91,0,0,0,0,0,0,0,0,4.8457,4.8463,4.8795,4.8797,4.8799,4.8947,4.895,4.8952,4.8883,4.8878,4.8874,4.8869,4.9037,4.9047,4.9056,0,0,0,0,0,0,0,0,0,0,0,0,0,0,0,4.8795,4.8797,0,4.8948,4.895,4.8951,4.8882,4.8878,4.8875,4.8871,4.904,4.9048,4.9055,0,0,0,0,0,0,0,0,0,0,0,0,0,0,0,0,0,0,0,0,0,0,0,0,0,0,0,0,0,0,0,0,0,0,0,0,0,0,0,0,0,0,0,0,0,0,0,0,0,0,0,0,0,0,0,0,0,0,0,0,0,0,0,0,0,0,0,0,0]}]]]